Current Version              Previous Version:    01  02  03  04  05  06  07  08  09  10  11  12  13  14  15  16  17  18  19  20  21  22  23  24  25  26  27  28  29  30  
   31  32  33  34  35  36  37  38  39  40  41  42  43  44  45  46  47  48  49  50  51  52  53  54  55  56  57  58  59  60  

[Printable]
870
ASUS44 KEWX 260910
RWRTX
SOUTH TEXAS REGIONAL WEATHER ROUNDUP
NATIONAL WEATHER SERVICE AUSTIN/SAN ANTONIO TX
300 AM CST WED NOV 26 2014

NOTE: "FAIR" INDICATED FEW OR NO CLOUDS BELOW 12,000 FEET WITH NO
SIGNIFICANT WEATHER AND/OR OBSTRUCTIONS TO VISIBILITY.

* - THESE STATIONS ARE NOT NWS OR FAA STATIONS...AND ARE NOT SUBJECT
    TO NWS AND FAA QUALITY CONTROL.

TXZ171-172-183>190-261000-
TEXAS HILL COUNTRY AND EDWARDS PLATEAU

CITY           SKY/WX    TMP DP  RH WIND       PRES   REMARKS
JUNCTION       CLEAR     30  25  81 CALM      30.17F
*LLANO         CLEAR     34  30  86 NW5       30.18F WCI  30
BURNET         CLEAR     38  29  70 CALM      30.16F
*HORSESHOE BAY CLEAR     40  30  67 CALM      30.16R
*KERRVILLE     CLEAR     31  28  89 N3        30.19S
*FREDERICKSBRG CLEAR     32  28  86 CALM      30.16F
*ROCKSPRINGS   CLEAR     45  25  45 MISG      30.21S
*BOERNE STAGE  CLEAR     34  28  80 CALM      30.19F
*CASTROVILLE   CLEAR     40  32  74 W5        30.23R WCI  36
HONDO          CLEAR     35  28  75 S3        30.24R
*UVALDE        CLEAR     38  30  73 CALM      30.23S
DEL RIO        CLEAR     43  31  62 NE6       30.20S WCI  39
LAUGHLIN AFB   CLEAR     37  31  82 N8        30.20F WCI  30
CARRIZO SPRGS  CLEAR     41  34  75 CALM      30.21S
$$

TXZ173-191>194-202-209-217>225-228-261000-
CENTRAL AND SOUTH CENTRAL TEXAS

CITY           SKY/WX    TMP DP  RH WIND       PRES   REMARKS
GEORGETOWN     CLEAR     45  30  57 SW7       30.14F WCI  41
AUSTIN/BERGSTM CLEAR     43  33  68 SW6       30.17S WCI  39
AUSTIN/MABRY   CLEAR     51  29  42 SW3       30.16F
*AUSTIN/EXEC   CLEAR     41  32  70 CALM      30.16S
*LAGO VISTA    CLEAR     47  30  51 W7        30.16S WCI  44
SAN MARCOS     CLEAR     37  30  75 CALM      30.20R
NEW BRAUNFELS  CLEAR     40  33  76 S9        30.18S WCI  34
RANDOLPH AFB   CLEAR     45  33  61 S6        30.20S WCI  42
PT SAN ANTONIO CLEAR     40  35  81 SW5       30.19S WCI  37
SAN ANTONIO    CLEAR     41  34  76 NW3       30.20S
STINSON FIELD  CLEAR     39  35  86 S3        30.21R
*PLEASANTON    FLURRIES  40  34  79 S5        30.24R WCI  36
*LA GRANGE     CLEAR     45  37  74 S3        30.17F
*GIDDINGS      CLEAR     44  34  67 S7        30.22R WCI  40
*GONZALES      CLEAR     43  34  69 S3        30.20S
$$

TXZ163>164-176>182-195>201-210>213-226-227-235-261000-
SOUTHEAST TEXAS

CITY           SKY/WX    TMP DP  RH WIND       PRES   REMARKS
COLLEGE STN    CLEAR     45  34  65 S7        30.16F WCI  41
*BRYAN         CLEAR     46  34  63 S7        30.17F WCI  42
*CALDWELL      CLEAR     43  34  70 SW6       30.20F WCI  39
*CROCKETT      CLEAR     43  36  75 S5        30.19S WCI  40
*BRENHAM       CLEAR     48  36  63 SW7       30.19F WCI  45
HUNTSVILLE     CLEAR     45  33  63 S6        30.17F WCI  42
CONROE         CLEAR     36  34  92 CALM      30.20F
HOUSTON BUSH   CLEAR     44  38  79 S5        30.20F WCI  42
HOUSTON HOBBY  CLEAR     47  40  76 SW3       30.21F
*HOUSTON SW AP CLEAR     43  40  89 CALM      30.23S
PEARLAND       CLEAR     47  40  76 S3        30.23F
HOUSTON HOOKS  CLEAR     46  35  65 SW6       30.20F WCI  43
ELLINGTON FLD  CLEAR     48  39  71 CALM      30.23S
SUGAR LAND     CLEAR     47  39  74 SW6       30.21F WCI  44
*HOUSTON EXEC  PTCLDY    41  36  81 SW6       30.21F WCI  37
*CLEVELAND MUN CLEAR     37  37 100 CALM      30.21F
*WHARTON       NOT AVBL
*COLUMBUS      FAIR      45  38  76 SW7       30.20S WCI  41
$$

TXZ214>216-236>238-261000-
THE UPPER TEXAS COAST

CITY           SKY/WX    TMP DP  RH WIND       PRES   REMARKS
*ORANGE        CLEAR    N/A N/A N/A SW3       30.22S
PORT ARTHUR    CLEAR     46  42  86 SW6       30.20F WCI  43
GALVESTON      CLEAR     56  45  66 SW8       30.23S
ANGLETON       CLEAR     42  41  96 S3        30.22F
*BAY CITY        N/A     45  43  93 S5        30.22F WCI  43
PALACIOS       CLEAR     54  48  80 SW6       30.23F
$$

TXZ229>234-239>247-261000-
TEXAS COASTAL BEND AND RIO GRANDE PLAINS

CITY           SKY/WX    TMP DP  RH WIND       PRES   REMARKS
VICTORIA       CLEAR     46  39  76 SW7       30.23S WCI  42
*BEEVILLE      CLEAR     46  36  69 SW5       30.24S WCI  43
ROCKPORT       CLEAR     50  44  80 SW5       30.24S WCI  48
*PORT ARANSAS  CLEAR     58  44  58 SW7       30.24S
*PORT LAVACA   CLEAR     46  43  89 SW6       30.23F WCI  43
*INGLESIDE     CLEAR     51  45  81 SW6       30.24R
CORPUS CHRISTI CLEAR     45  40  82 SW8       30.25R WCI  41
CORPUS NAS     CLEAR     51  47  86 SW8       30.25R
*ROBSTOWN      NOT AVBL
ALICE          CLEAR     43  37  79 SW7       30.25R WCI  39
KINGSVILLE NAS CLEAR     43  39  86 SW8       30.26S WCI  38
COTULLA        CLEAR     42  35  76 SE6       30.23S WCI  38
LAREDO         CLEAR     47  35  63 SE5       30.25F WCI  45
$$

TXZ248>255-261000-
DEEP SOUTH TEXAS

CITY           SKY/WX    TMP DP  RH WIND       PRES   REMARKS
BROWNSVILLE    CLEAR     44  42  93 CALM      30.26F
PORT ISABEL    CLEAR     47  41  80 S5        30.26F WCI  45
*SOUTH PADRE   CLEAR    N/A N/A N/A CALM      30.26S
HARLINGEN      CLEAR     46  41  82 S8        30.25F WCI  42
*HEBBRONVILLE  CLEAR     44  34  69 S5        30.25S WCI  41
MCALLEN        CLEAR     45  41  86 SE3       30.27F
*WESLACO       CLEAR     46  39  76 CALM      30.26F
FALFURRIAS     CLEAR     43  37  80 SW3       30.26R
EDINBURG       CLEAR     45  40  82 CALM      30.27S
*ZAPATA        NOT AVBL
$$

TXZ213>215-236>238-242>244-246-247-251-254-255-261000-
CMAN STATIONS

STATION/POSITION TIME  TEMP    WIND        PRES    WAVE
                       AIR SEA DIR/SP/G            HT/PER
                 (UTC) (F)     (DEG/KT/KT) (MB)    (FT/S)
SABINE PASS      0900   51 60  230/  4/  6 1022.8
SEA RIM ST PARK  0900   57     230/  9/ 11 1023.4
NORTH JETTY/GLS  0900   59 59  250/ 10/ 11   N/A
EAGLE POINT      0900   53 58  240/  5/  7 1023.2
MORGANS POINT    0900   54     220/  4/  8 1023.0
MISSION/ARANSAS  0800   58     180/  9     1025.0
PORT O`CONNOR    0900          200/  7/  8   N/A
PORT ARANSAS     0900   63 62  180/ 11/ 12 1024.5
MALAQUITE BEACH  0900   63 62  210/  9/ 13 1023.4
BAFFIN BAY       0900   55 71  210/ 11/ 13 1024.2
PORT ISABEL      0900   50 64  200/  1/  2 1024.6
$$

GMZ080-GMZ150>470-261000-
OFFSHORE BUOY REPORTS

STATION/POSITION TIME  TEMP    WIND        PRES    WAVE
                       AIR SEA DIR/SP/G            HT/PER
                 (UTC) (F)     (DEG/KT/KT) (MB)    (FT/S)
20 E GALVESTON   0900   61 60  220/ 12/ 14 1023.1    2/ 3
90 E PT ARANSAS  0900   65 72  210/  8/ 10 1024.9    4/ 8
35 NE PT MANSFLD 0900   65 73  170/  4/  8 1024.2    4/ 8
200 E PT ISABEL  0900   65 74   20/ 16/ 21 1024.2    7/ 8
$$